Philip, SD

10:43 PM MDT on May 25, 2017 (GMT -0600)
Philip

Weather History for KPHP - December, 2014

Change the Weather History Date:

Tuesday, December 16, 2014

  Actual Average Record
Temperature  
Mean Temperature 21 °F 22 °F  
Max Temperature 23 °F 35 °F 67 °F (1962)
Min Temperature 19 °F 10 °F -22 °F (1951)
Degree Days  
Heating Degree Days 44 43  
Month to date heating degree days 510 650  
Since 1 July heating degree days 2165 2285  
Cooling Degree Days 0 0  
Month to date cooling degree days 0 0  
Year to date cooling degree days 649 818  
Moisture  
Dew Point 16 °F    
Average Humidity 76    
Maximum Humidity 81    
Minimum Humidity 71    
Precipitation  
Precipitation 0.00 in 0.01 in 0.32 in (2016)
Month to date precipitation T 0.23  
Year to date precipitation 16.21 17.15  
Sea Level Pressure  
Sea Level Pressure 30.36 in    
Wind  
Wind Speed 7 mph (NE)    
Max Wind Speed 16 mph    
Max Gust Speed 21 mph    
Visibility 10 miles    
Events      
T = Trace of Precipitation, MM = Missing Value Source: NWS Daily Summary

Daily Weather History Graph

Daily Weather History Graph

Search for Another Location

Airport or City:

Trip Planner

Search our weather history database for the weather conditions in past years. The results will help you decide how hot, cold, wet, or windy it might be!

Date:

Astronomy

Dec. 16, 2014 Rise Set
Actual Time 7:15 AM MST 4:09 PM MST
Civil Twilight 6:42 AM MST 4:42 PM MST
Nautical Twilight 6:05 AM MST 5:18 PM MST
Astronomical Twilight 5:30 AM MST 5:53 PM MST
Moon 1:22 AM MST (12/16) 12:49 PM MST (12/16)
Length of Visible Light 10h 00m
Length of Day
8h 53m
Waning Crescent, 29% of the Moon is Illuminated
Dec 16
Waning Crescent
Dec 21
New
Dec 28
First Quarter
Jan 4
Full
Jan 13
Last Quarter

Hourly Weather History & Observations

Time (MST) Temp. Windchill Dew Point Humidity Pressure Visibility Wind Dir Wind Speed Gust Speed Precip Events Conditions
12:55 AM 23.0 °F 11.1 °F 17.1 °F 78% 30.37 in 10.0 mi NNW 12.7 mph - N/A   Overcast
1:55 AM 23.0 °F 13.1 °F 17.1 °F 78% 30.37 in 10.0 mi NNW 9.2 mph - N/A   Overcast
2:55 AM 23.0 °F 11.7 °F 17.1 °F 78% 30.38 in 10.0 mi North 11.5 mph - N/A   Overcast
3:55 AM 23.0 °F 13.1 °F 17.1 °F 78% 30.37 in 10.0 mi NNW 9.2 mph - N/A   Overcast
4:55 AM 23.0 °F 13.9 °F 17.1 °F 78% 30.38 in 10.0 mi North 8.1 mph - N/A   Overcast
5:55 AM 21.9 °F 9.8 °F 16.0 °F 78% 30.39 in 10.0 mi North 12.7 mph - N/A   Overcast
6:55 AM 21.9 °F 15.7 °F 16.0 °F 78% 30.39 in 10.0 mi North 4.6 mph - N/A   Overcast
7:29 AM 21.9 °F 15.7 °F 16.0 °F 78% 30.32 in 10.0 mi NNW 4.6 mph - N/A   Overcast
7:55 AM 21.9 °F 14.5 °F 16.0 °F 78% 30.41 in 10.0 mi NNW 5.8 mph - N/A   Overcast
8:31 AM 21.9 °F 17.2 °F 16.0 °F 78% 30.33 in 10.0 mi NNW 3.5 mph - N/A   Overcast
8:55 AM 21.9 °F 14.5 °F 16.0 °F 78% 30.42 in 10.0 mi NW 5.8 mph - N/A   Overcast
9:29 AM 21.9 °F - 15.1 °F 75% 30.34 in 10.0 mi Calm Calm - N/A   Overcast
9:55 AM 21.9 °F 15.7 °F 16.0 °F 78% 30.43 in 10.0 mi NW 4.6 mph - N/A   Overcast
10:55 AM 23.0 °F 18.4 °F 16.0 °F 74% 30.41 in 10.0 mi WSW 3.5 mph - N/A   Overcast
11:55 AM 21.9 °F 14.5 °F 16.0 °F 78% 30.38 in 10.0 mi SSW 5.8 mph - N/A   Overcast
12:55 PM 23.0 °F - 16.0 °F 74% 30.36 in 10.0 mi Calm Calm - N/A   Overcast
1:55 PM 23.0 °F 15.8 °F 16.0 °F 74% 30.35 in 10.0 mi East 5.8 mph - N/A   Overcast
2:55 PM 23.0 °F 18.4 °F 15.1 °F 72% 30.35 in 10.0 mi ENE 3.5 mph - N/A   Overcast
3:55 PM 23.0 °F 15.8 °F 15.1 °F 72% 30.35 in 10.0 mi ESE 5.8 mph - N/A   Overcast
4:55 PM 21.9 °F 14.5 °F 15.1 °F 75% 30.35 in 10.0 mi SSE 5.8 mph - N/A   Overcast
5:55 PM 21.9 °F 15.7 °F 15.1 °F 75% 30.35 in 10.0 mi SSE 4.6 mph - N/A   Overcast
6:55 PM 21.9 °F 14.5 °F 15.1 °F 75% 30.35 in 10.0 mi SE 5.8 mph - N/A   Overcast
7:55 PM 21.0 °F 12.4 °F 15.1 °F 78% 30.34 in 10.0 mi ESE 6.9 mph - N/A   Overcast
8:55 PM 21.0 °F 10.6 °F 14.0 °F 74% 30.34 in 10.0 mi SE 9.2 mph - N/A   Overcast
9:55 PM 19.9 °F 9.3 °F 14.0 °F 78% 30.35 in 10.0 mi East 9.2 mph - N/A   Overcast
10:06 PM 19.9 °F 9.3 °F 14.0 °F 78% 30.25 in 10.0 mi ESE 9.2 mph - N/A   Overcast
10:55 PM 19.9 °F 9.3 °F 14.0 °F 78% 30.35 in 10.0 mi ESE 9.2 mph - N/A   Overcast
11:55 PM 19.0 °F 7.5 °F 12.9 °F 77% 30.33 in 10.0 mi ESE 10.4 mph - N/A   Overcast